Regional Weather Roundup
Issued by NWS

Home | Current Version | Previous Version | Text Only | Print | Product List | Glossary On
Versions: 1 2 3 4 5 6 7 8 9 10 11 12 13 14 15 16 17 18 19 20 21 22 23 24 25 26 27 28 29 30 31 32 33 34 35 36 37 38 39 40 41 42 43 44 45 46 47 48 49 50
000
ASUS43 KMPX 191810
RWRMN
WEATHER ROUNDUP FOR MINNESOTA
NATIONAL WEATHER SERVICE TWIN CITIES/CHANHASSEN MN
100 PM CDT FRI SEP 19 2014


NOTE: "FAIR" INDICATES FEW OR NO CLOUDS BELOW 12,000 FEET WITH NO
SIGNIFICANT WEATHER AND/OR OBSTRUCTIONS TO VISIBILITY. N/A MEANS
CURRENT SKY AND/OR WEATHER CONDITIONS ARE NOT AVAILABLE.

MNZ060>063-068>070-191900-
   Twin Cities Metro

CITY           SKY/WX    TMP DP  RH WIND       PRES   REMARKS
TWIN CITIES    CLOUDY    72  59  63 S16G25    29.74F
6HR MIN TEMP:  57; 6HR MAX TEMP:  72;

ST PAUL        PTSUNNY   74  60  61 S18G25    29.74F
CRYSTAL        CLOUDY    72  59  63 S10       29.72F
BLAINE         PTSUNNY   72  61  68 S17G25    29.75
LAKEVILLE      PTSUNNY   73  61  64 S21G29    29.76S
EDEN PRAIRIE   CLOUDY    72  60  66 S20G25    29.73F
6HR MIN TEMP:  59; 6HR MAX TEMP:  74;

SOUTH ST PAUL  PTSUNNY   74  58  56 S17G25    29.75S
LAKE ELMO      FAIR      73  61  64 S25G31    29.76S
$$
MNZ001>005-007-008-013>017-022>024-027-028-191900-
   Northwest Minnesota

CITY           SKY/WX    TMP DP  RH WIND       PRES   REMARKS
BEMIDJI        DRIZZLE   63  60  91 SW12      29.63S
HALLOCK        CLOUDY    68  64  88 S14G20    29.50R
ROSEAU         RAIN      63  57  82 S14       29.51F
WARROAD        LGT RAIN  63  59  88 SW13G20   29.55F
THIEF RVR FALL CLOUDY    63  61  94 SW10      29.59F
CROOKSTON      LGT RAIN  64  64 100 S15       29.56F
FOSSTON        CLOUDY    61  61 100 S17       29.65R FOG
DETROIT LAKES  LGT RAIN  63  61  94 S12       29.66F
MOORHEAD       CLOUDY    68  66  94 S9        29.62S
PARK RAPIDS    CLOUDY    63  60  90 S13       29.68S
MAHNOMEN       LGT RAIN  63  61  93 S15       29.64R
$$
MNZ006-009>011-018-025>026-191900-
   North Central Minnesota

CITY           SKY/WX    TMP DP  RH WIND       PRES   REMARKS
BAUDETTE       RAIN      62  60  93 SW10      29.56F FOG
FLAG ISLAND    LGT RAIN  61  59  94 SW15      29.52S
INTL FALLS     LGT RAIN  60  58  92 SW8G17    29.60F
6HR MIN TEMP:  57; 6HR MAX TEMP:  62; 6HR PCP:  0.04;

WASKISH        LGT RAIN  63  61  94 CALM      29.61S
BIG FORK       LGT RAIN  61  57  88 S12G21    29.65F
LONGVILLE      CLOUDY    61  57  88 S9G16     29.68S
GRAND RAPIDS   CLOUDY    59  55  88 S9        29.68R
CRANE LAKE     LGT RAIN  57  55  94 S7        29.66R
ORR            DRIZZLE   57  55  94 SW9G16    29.64R
COOK           CLOUDY    59  57  94 SW10G16   29.68R
WALKER         CLOUDY    62  58  88 SW13      29.65S
$$
MNZ012-019>021-037-191900-
   Northeast Minnesota

CITY           SKY/WX    TMP DP  RH WIND       PRES   REMARKS
DULUTH         CLOUDY    62  54  74 SW16G25   29.73S
6HR MIN TEMP:  55; 6HR MAX TEMP:  62; 6HR PCP: TRACE;

ELY            LGT RAIN  57  55  94 SW9       29.68R
HIBBING        LGT RAIN  60  55  83 SW8G17    29.70S
EVELETH        CLOUDY    57  54  88 SW12G18   29.70F
DULUTH HARBOR  CLOUDY    66  57  72 SW15      29.73S
TWO HARBORS    CLOUDY    61  54  77 SW9       29.71S
SILVER BAY     CLOUDY    59  55  88 S8G16     29.71F
GRAND MARAIS     N/A     56  53  90 VRB3      29.74R
G MARAIS ARPRT LGT RAIN  52  48  87 S8        29.75R
$$
MNZ029>031-032-039>041-046>048-054>057-064-191900-
   West Central Minnesota

CITY           SKY/WX    TMP DP  RH WIND       PRES   REMARKS
FERGUS FALLS   CLOUDY    64  59  82 SW10      29.66S
WHEATON        LGT RAIN  64  61  88 S8        29.67S
MORRIS         CLOUDY    66  64  94 S10       29.67S FOG
ALEXANDRIA     CLOUDY    62  61  96 S10       29.71S FOG
ELBOW LAKE     LGT RAIN  63  62  97 S13       29.67S
WADENA         CLOUDY    63  59  88 S9        29.67F
GLENWOOD       FOG       63  61  94 S8        29.70F VSB 1
APPLETON       CLOUDY    70  63  78 S7        29.67S
BENSON         CLOUDY    66  63  88 SW9       29.69F
ORTONVILLE     CLOUDY    68  63  83 S5        29.66S
MADISON        CLOUDY    72  64  78 S6        29.68S
WILLMAR        PTSUNNY   66  61  82 S6        29.72F
$$
MNZ033>034-036-042>043-049>051-058-059-191900-
   Central Minnesota

CITY           SKY/WX    TMP DP  RH WIND       PRES   REMARKS
ST CLOUD       CLOUDY    64  60  87 S14       29.72F FOG
6HR MIN TEMP:  62; 6HR MAX TEMP:  65; 6HR PCP: TRACE;

SAUK CENTRE    CLOUDY    61  61  98 S9        29.71S FOG
PAYNESVILLE    DRIZZLE   60  60  99 SE7       29.72F
AITKIN         CLOUDY    63  57  82 S8G16     29.66F HAZE
PINE RIVER     CLOUDY    61  57  88 S6        29.72S
BRAINERD       CLOUDY    59  58  96 SW13      29.72S FOG
STAPLES        CLOUDY    61  59  94 S22       29.67F FOG
LONG PRAIRIE   CLOUDY    59  59 100 S9        29.71R FOG
LITTLE FALLS   CLOUDY    59  57  94 SE8       29.71F FOG
LITCHFIELD     CLOUDY    64  63  94 CALM      29.74S
BUFFALO        CLOUDY    67  59  74 S8        29.76F
MAPLE LAKE     CLOUDY    66  61  84 S8G16     29.75S
$$
MNZ037-044-045-052-053-191900-
   East Central Minnesota

CITY           SKY/WX    TMP DP  RH WIND       PRES   REMARKS
PRINCETON      CLOUDY    66  59  77 SW6       29.76R
MORA           CLOUDY    63  55  77 SW10      29.77R
CAMBRIDGE      PTSUNNY   70  55  60 S8        29.74R
RUSH CITY      CLOUDY    66  57  72 S6        29.76R
MOOSE LAKE     CLOUDY    61  54  77 S7        29.73F
HINCKLEY       CLOUDY    64  57  77 SW9G17    29.76R
CLOQUET        CLOUDY    61  54  77 S9G16     29.73F
MCGREGOR       CLOUDY    61  59  94 S13       29.70F
$$
MNZ071>073-080-081-089-090-097-098-191900-
   Southwest Minnesota

CITY           SKY/WX    TMP DP  RH WIND       PRES   REMARKS
MONTEVIDEO     CLOUDY    68  63  83 SW6       29.71F
GRANITE FALLS  CLOUDY    68  63  82 S5        29.72F
CANBY          CLOUDY    71  64  78 SW5       29.70S
MARSHALL       CLOUDY    72  63  73 SW8       29.68F
REDWOOD FALLS  CLOUDY    73  63  70 SW15G21   29.71S
OLIVIA         CLOUDY    70  63  78 SW8       29.71R
PIPESTONE      MOSUNNY   75  63  64 SW18G26   29.72R
WINDOM         SUNNY     75  63  64 S24G33    29.70F
WORTHINGTON    SUNNY     75  63  64 S23G32    29.73F
JACKSON        SUNNY     77  61  57 S21G29    29.75F
TRACY          MOSUNNY   74  64  69 SW16      29.72R
SLAYTON        SUNNY     73  63  69 S25G37    29.70S
$$
MNZ065>067-074>077-082>085-091>093-191900-
   South Central Minnesota

CITY           SKY/WX    TMP DP  RH WIND       PRES   REMARKS
MANKATO        MOSUNNY   75  59  57 S20G36    29.74F
NEW ULM        SUNNY     70  64  83 S22G29    29.69F
ST JAMES       SUNNY     75  63  64 S18G28    29.73F
FAIRMONT       SUNNY     75  55  50 S22G31    29.76F
GLENCOE        CLOUDY    69  59  70 S13       29.72F
FARIBAULT      SUNNY     77  55  47 S24G30    29.77F
OWATONNA       MOSUNNY   73  59  60 S20G31    29.77F
WASECA         MOSUNNY   77  55  47 S25G32    29.78F
ALBERT LEA     MOSUNNY   75  61  60 S20G30    29.81F
$$
MNZ078>079-086>088-094>096-191900-
   Southeast Minnesota

CITY           SKY/WX    TMP DP  RH WIND       PRES   REMARKS
ROCHESTER      MOSUNNY   71  57  61 S22G37    29.85F
6HR MIN TEMP:  53; 6HR MAX TEMP:  71;

RED WING       MOSUNNY   75  57  53 S16G24    29.78F
STANTON        MOSUNNY   75  58  54 S16G31    29.75F
DODGE CENTER   MOSUNNY   72  59  64 S32G43    29.82F
WINONA         MOSUNNY   73  57  56 S14G23    29.89F
AUSTIN         MOSUNNY   72  59  64 S22G33    29.84F
PRESTON        CLOUDY    69  60  73 S23G31    29.91S
$$
ABBREVIATIONS USED IN REMARKS
   TC - TEMPERATURES IN CELSIUS
  WCI - WIND CHILL INDEX
   HX - HEAT INDEX
  VSB - VISIBILITY
$$


USA.gov is the U.S. government's official web portal to all federal, state and local government web resources and services.